www.pogodaiklimat.ru

Погода и климат >> Архив погоды >> Филиппины >> Тайябас


ПОГОДА в Тайябасе

  • Прогноз погоды в Тайябасе
  • Монитор погоды в Тайябасе

АРХИВ ПОГОДЫ в Тайябасе

Время (UTC), дата Ветер
(напр.,м/с)
 
Видим.   Явления Облачность Т
(С)
Тd
(С)
f
(%)
Тe
(С)
Тes
(С)
Комфортность P
(гПа)
Po
(гПа)
Тmin
(С)
Tmax
(С)
R
(мм)
R24
(мм)
S
(см)
00 16.04 СВ 2 25 км 5/3 600 м
[Cu med, cong Cs]
+28.0 +24.1 79 +39 +43 очень
душно
1012.7 995.0 +24.5
03 16.04 Ю 4 25 км 6/4 600 м
[Cu med, cong Ac As]
+30.4 +25.4 75 +45 +51 опасность
перегрева
1012.4 994.8
06 16.04 Ю 2 25 км 6/4 600 м
[Cu med, cong Ac As]
+31.6 +23.4 62 +42 +50 опасность
перегрева
1009.5 991.9
09 16.04 ЮВ 1 25 км 8/4 600 м
[Cu med, cong Ac As]
+30.2 +26.1 79 +46 +46 опасность
перегрева
1009.0 991.4
12 16.04 С 1 25 км 4/1 600 м
[Cu med, cong Ci sp]
+26.2 +23.9 87 +36 +36 очень
душно
1011.4 993.7 +33.5
15 16.04 СЗ 2 25 км 4/1 600 м
[Cu med, cong Ci sp]
+25.0 +23.6 92 +34 +34 очень
душно
1012.5 994.8
18 16.04 СЗ 1 25 км 3/1 600 м
[Cu med, cong Ci fib]
+24.6 +22.9 90 +33 +33 очень
душно
1009.6 992.0
21 16.04 С 1 25 км 3/1 600 м
[Cu med, cong Ci fib]
+24.0 +22.6 92 +31 +31 очень
душно
1010.7 993.0
00 17.04 Ю 3 25 км 6/3 600 м
[Cu med, cong Cs]
+28.0 +24.1 79 +39 +42 очень
душно
1012.6 994.9 +23.0
03 17.04 Ю 3 25 км 6/4 600 м
[Cu med, cong Ac As]
+30.6 +26.0 77 +46 +54 опасность
перегрева
1012.2 994.5
06 17.04 ЮЗ 3 25 км 5/3 600 м
[Cu med, cong Cs]
+31.4 +23.5 63 +42 +51 опасность
перегрева
1009.6 992.0
09 17.04 Ю 2 25 км 6/3 600 м
[Cu med, cong Ac As]
+30.0 +23.5 68 +41 +41 опасность
перегрева
1008.7 991.0
12 17.04 З 1 25 км 5/3 600 м
[Cu med, cong Ac As]
+26.2 +24.5 90 +37 +37 очень
душно
1010.7 993.0 +33.0
15 17.04 штиль 0 20 км 8/4 540 м
[Cu med, cong Ac cuf]
+25.4 +23.3 88 +34 +34 очень
душно
1011.7 994.0
18 17.04 штиль 0 20 км 8/4 540 м
[Cu med, cong Ac trans]
+25.7 +33.4 100 +38 +38 очень
душно
1009.7 992.1
21 17.04 штиль 0 20 км 8/4 540 м
[Cu med, cong Ac As Cs]
+23.9 +21.3 85 +30 +30 очень
душно
1010.0 992.3
00 18.04 Ю 2 25 км 6/3 600 м
[Cu med, cong Cs]
+28.0 +24.1 79 +39 +43 очень
душно
1011.7 994.0 +24.0
03 18.04 ЮВ 2 25 км 8/4 600 м
[Cu med, cong Ac As]
+30.4 +26.1 78 +46 +53 опасность
перегрева
1012.2 994.5
06 18.04 ЮВ 3 25 км 5/3 600 м
[Cu med, cong Cs]
+31.8 +27.0 76 +50 +59 опасность
перегрева
1009.5 992.0
09 18.04 Ю 1 25 км 8/4 600 м
[Cu med, cong Ac As]
+30.0 +25.1 75 +43 +44 опасность
перегрева
1009.1 991.4
12 18.04 С 1 25 км 6/1 600 м
[Cu med, cong Cs]
+26.8 +24.4 87 +38 +38 очень
душно
1010.7 993.0 +33.5
15 18.04 штиль 0 20 км 3/1 540 м
[Cu hum Cs]
+26.4 +24.5 89 +37 +37 очень
душно
1010.9 993.3
18 18.04 штиль 0 20 км 3/1 540 м
[Cu med, cong Ac trans]
+25.4 +23.5 89 +34 +34 очень
душно
1009.3 991.7
21 18.04 штиль 0 20 км 3/1 540 м
[Cu med, cong Cs]
+24.6 +22.7 89 +32 +32 очень
душно
1009.6 992.0
00 19.04 В 1 25 км 6/4 600 м
[Cu med, cong Ac As]
+27.8 +24.8 84 +40 +43 очень
душно
1012.3 994.6 +24.0
03 19.04 Ю 3 25 км 6/4 600 м
[Cu med, cong Ac As]
+30.8 +24.6 70 +44 +52 опасность
перегрева
1012.2 994.6
06 19.04 ЮВ 1 25 км 5/3 600 м
[Cu med, cong Cs]
+32.6 +23.0 57 +43 +55 опасность
перегрева
1008.6 991.0
09 19.04 СВ 3 25 км 8/4 600 м
[Cu med, cong Cs]
+30.4 +24.0 69 +42 +43 опасность
перегрева
1007.6 990.0
12 19.04 С 1 22 км 5/1 600 м
[Cu med, cong Cs]
+27.4 +24.3 83 +38 +38 очень
душно
1009.1 991.5 +33.7
15 19.04 штиль 0 20 км 1/1 540 м
[Cu hum]
+26.7 +24.5 88 +38 +38 очень
душно
1009.8 992.2
21 19.04 штиль 0 20 км 3/3 540 м
[Cu med, cong]
+25.0 +22.7 87 +33 +33 очень
душно
1009.4 991.8
00 20.04 СВ 3 25 км 6/4 600 м
[Cu med, cong Ac As]
+28.0 +24.1 79 +39 +41 очень
душно
1011.2 993.5 +24.5
03 20.04 СВ 2 25 км 5/3 600 м
[Cu med, cong Cs]
+31.0 +22.9 62 +41 +55 опасность
перегрева
1010.1 992.5
06 20.04 В 4 25 км 5/3 600 м
[Cu med, cong Cs]
+31.4 +27.1 78 +49 +57 опасность
перегрева
1008.1 990.5
09 20.04 СВ 4
{8}
25 км 4/1 600 м
[Cu med, cong Cs]
+30.1 +29.0 94 +53 +54 опасность
перегрева
1006.8 989.2
12 20.04 С 2 22 км 3/3 600 м
[Cu med, cong]
+26.8 +25.2 91 +39 +39 очень
душно
1008.1 990.5 +33.0
15 20.04 штиль 0 20 км 3/3 540 м
[Cu med, cong]
+25.4 +23.5 89 +34 +34 очень
душно
1010.0 992.4
18 20.04 С 2 20 км 1/1 540 м
[Cu hum]
+25.0 +22.8 88 +33 +33 очень
душно
1008.7 991.1
21 20.04 штиль 0 20 км 1/1 540 м
[Cu hum]
+24.0 +22.2 90 +31 +31 очень
душно
1008.8 991.1
00 21.04 СВ 2 25 км 4/3 600 м
[Cu med, cong Ac cuf]
+28.2 +24.6 81 +40 +44 очень
душно
1010.7 993.0 +23.5
03 21.04 Ю 2 25 км 5/4 600 м
[Cu med, cong Ac cuf]
+30.4 +26.1 78 +46 +57 опасность
перегрева
1010.7 993.0
06 21.04 Ю 2 25 км 4/3 600 м
[Cu med, cong Ac cuf]
+32.4 +29.2 83 +56 +67 опасность
перегрева
1008.4 990.7
09 21.04 СВ 1 25 км 4/3 600 м
[Cu med, cong Cs]
+29.0 +25.4 81 +43 +44 опасность
перегрева
1008.1 990.5
12 21.04 С 1 25 км 3/1 600 м
[Cu med, cong Ci sp]
+27.2 +24.6 86 +39 +39 очень
душно
1009.6 992.0 +33.0
15 21.04 С 2 20 км 6/1 600 м
[Cu med, cong Ac trans Cs]
+27.1 +25.0 88 +39 +39 очень
душно
1010.3 992.7
18 21.04 С 1 20 км 8/4 540 м
[Sc Ac cuf]
+26.4 +24.8 91 +38 +38 очень
душно
1008.6 991.1
21 21.04 С 2 20 км 9/5 540 м
[Sc Ac As]
+26.2 +24.2 89 +36 +36 очень
душно
1009.0 991.4
00 22.04 СВ 2 25 км мгла {туман} 8/4 600 м
[Cu med, cong Ac As]
+27.8 +24.1 80 +39 +41 очень
душно
1011.2 993.5 +24.5
03 22.04 Ю 2 25 км мгла {туман} 9/4 600 м
[Cu med, cong Ac As]
+29.8 +24.2 72 +42 +47 опасность
перегрева
1010.8 993.2
06 22.04 В 2 25 км мгла {туман} 5/4 600 м
[Cu med, cong Cs]
+30.8 +25.7 74 +45 +55 опасность
перегрева
1005.2 990.6
09 22.04 СВ 5 25 км мгла {туман} 5/3 600 м
[Cu med, cong Cs]
+29.0 +25.1 80 +42 +43 опасность
перегрева
1008.0 990.4
12 22.04 С 2 25 км {туман} 4/1 600 м
[Cu med, cong Ci fib]
+26.4 +23.5 84 +36 +36 очень
душно
1009.5 981.8 +33.7
15 22.04 С 2 22 км 6/6 600 м
[Cu med, cong]
+26.2 +23.8 87 +36 +36 очень
душно
1011.5 993.8
18 22.04 СВ 2 22 км 8/4 600 м
[Cu med, cong Cs]
+26.0 +24.1 89 +36 +36 очень
душно
1010.2 992.6

 

Местоположение метеостанции Тайябас (Филиппины): широта 14.03 долгота 121.58 высота над уровнем моря 158 м.

В архиве по умолчанию представлена погода в Тайябасе за последнюю неделю. Архивные данные за месяц целиком и за предыдущие месяцы, начиная с января 2011 года, Вы можете получить, выбрав интересующий диапазон дат из раскрывающегося списка и нажав кнопку "Ввод!".


*Определитесь, кто Вы:
робот инопланетянин человек

Внимание! Время в таблицах - всемирное. Для получения местного времени необходимо прибавить поправку, которая равна 8 ч.

Смотрите также архив погоды в соседних городах и на ближайших метеорологических станциях:

Погода на Алабате (Филиппины) (47 км)
Погода на Амбулонге (Филиппины) (57 км)
Погода в Танае (Филиппины) (58 км)
Погода в Инфанте (Филиппины) (80 км)
Погода в Калапане (Филиппины) (80 км)
Погода в Аэропорту Ninoy Aquino (Филиппины) (83 км)
Погода в Маниле (Филиппины) (89 км)
Погода в Сангли Пойнт (Филиппины) (89 км)
Погода в Научном саду (Филиппины) (91 км)
Погода в Даете (Филиппины) (151 км)

Пояснения к столбцам:

Ветер - указаны скорость ветра в м/с - средняя за 10 мин, порывы в срок и между сроками (в фигурных скобках) и направление, откуда дует ветер: С - северный, СВ - северо-восточный, В - восточный, ЮВ - юго-восточный, Ю - южный, ЮЗ - юго-западный, З - западный, СЗ - северо-западный.
Видимость - горизонтальная дальность видимости в метрах или километрах. При видимости от 1 до 10 км при отсутствии осадков обычно наблюдается дымка, при ухудшении видимости до 1 км и менее - туман. В сухую погоду видимость может ухудшаться дымом, пылью или мглою.
Явления - указаны атмосферные явления, наблюдавшиеся в срок или в последний час перед сроком; фигурными скобками обозначены явления, наблюдавшиеся между сроками (за 1-3 часа до срока); квадратными скобками обозначены град или гололедные отложения с указанием их диаметра в мм.
Облачность - указаны через наклонную черту общая и нижняя облачность в баллах и высота нижней границы облаков в метрах; квадратными скобками обозначены формы облаков: Ci - перистые, Cs - перисто-слоистые, Cc - перисто-кучевые, Ac - высококучевые, As - высокослоистые, Sc - слоисто-кучевые, Ns - слоисто-дождевые, Cu - кучевые, Cb - кучево-дождевые. Подробнее классификацию облаков см. в Атласе облаков (PDF).
T - Температура воздуха - температура, измеренная на высоте 2 м над землей.
Td - Температура точки росы - температура, при понижении до которой содержащийся в воздухе водяной пар достигнет насыщения.
f - Относительная влажность воздуха - влажноcть воздуха, измеренная на высоте 2 м над землей.
Te - Эффективная температура - температура, которую ощущает одетый по сезону человек в тени. Характеристика душности погоды. При расчете учитывается влияние влажности воздуха и скорости ветра на теплоощущения человека.
Tes - Эффективная температура на солнце - температура, которую ощущает человек, с поправкой на солнечный нагрев. Характеристика знойности погоды. Зависит от высоты солнца над горизонтом, облачности и скорости ветра. Ночью, в пасмурную погоду, а также при ветре 12 м/с и более поправка равна нулю.
P - Атмосферное давление - приведенное к уровню моря атмосферное давление.
Po - Атмосферное давление - измеренное на уровне метеостанции атмосферное давление.
Tmin - Минимальная температура - минимум температуры воздуха на высоте 2 м над землей.
Tmax - Максимальная температура - максимум температуры воздуха на высоте 2 м над землей.
R - Количество осадков - Количество выпавших осадков за период времени, мм. При наведении курсора мыши на число - период времени, за который выпало указанное количество осадков.
R24 - Количество осадков - Количество выпавших осадков за 24 часа, мм.
S - Снежный покров - Высота снежного покрова, см. При наведении курсора мыши на число - состояние снежного покрова и степень покрытия местности в баллах.